{"data":{"norad_id":67857,"intl_designator":"2026-034H","name":"STARLINK-36828","alt_names":[],"object_type":"PAYLOAD","status":"ACTIVE","operator":null,"country":"US","launch_date":"2026-02-20","launch_site_code":"AFETR","launch_vehicle":null,"mission":null,"orbit_class":"UNKNOWN","rcs_meters":null,"size_class":null,"mass_kg":null,"dimensions":null,"purposes":["comms"],"wikipedia_slug":null,"has_3d_model":false,"image_url":null,"decayed_at":null,"tle_current":{"epoch":"2026-09-19T22:17:28.563648Z","epoch_age_seconds":115876,"freshness":"FRESH","line1":"1 67857U 26034H   26262.92880282  .00005585  00000+0  19153-3 0  9999","line2":"2 67857  53.1620  20.6654 0001433  62.8121 297.3027 15.31710805 33799","mean_motion":15.31710805,"eccentricity":0.0001433,"inclination_deg":53.162,"raan_deg":20.6654,"arg_perigee_deg":62.8121,"mean_anomaly_deg":297.3027,"bstar":0.00019153,"rev_number":3379,"period_min":94.012524772912,"perigee_km":469.72634681436,"apogee_km":471.68922573011,"semimajor_km":6848.8447862722,"source":"CELESTRAK","updated_at":"2026-09-20T09:00:43.674715Z"}}}